Location: Unspecified
(0.0000°N, 0.0000°E)
Time: 18:01:38
(UTC+02:00)

Daily predictions for brighter satellites

Satellite Brightness Start Highest point End
(mag) Time Altitude Azimuth Time Altitude Azimuth Time Altitude Azimuth
Cosmos 1934 Rocket 4.0 20:15:12 10° S 20:21:13 65° E 20:27:16 10° NNE
Helios 1B rocket 2.4 20:24:54 10° NNE 20:28:59 87° ESE 20:33:05 10° S
Centaur AC-69 4.4 20:10:32 10° WNW 20:29:57 74° SSW 20:33:41 10° ESE
Meteor 2-16 Rocket 4.4 20:23:53 10° S 20:30:00 83° E 20:36:04 10° N
Cosmos 2322 Rocket 3.7 20:28:01 10° SE 20:30:40 14° ESE 20:33:20 10° ENE
Meteor 1-29 2.9 20:30:18 10° NNE 20:33:46 79° E 20:37:17 10° S
ARIANE 5 DEB (SYLDA 5A) 0.9 20:32:33 10° W 20:34:40 81° S 20:36:36 13° E
Delta 202 4.2 20:30:36 10° W 20:35:43 50° SSW 20:41:17 10° ESE
ARIANE 5 R/B 2.9 20:35:08 10° W 20:38:17 78° S 20:50:35 14° E
Helios 1A 4.2 20:44:33 13° ESE 20:46:56 21° ENE 20:50:03 10° NNE
Sylda 5 3.6 20:44:17 10° WNW 20:48:16 57° N 21:00:25 13° E
Cosmos 2227 Rocket 3.6 20:46:32 10° NE 20:49:59 16° ENE 20:50:49 16° E
Cosmos 2360 4.3 20:46:42 10° S 20:52:17 56° ESE 20:57:50 10° NNE
Cosmos 1763 Rocket 3.6 20:48:04 10° S 20:53:03 48° ESE 20:57:57 10° NNE
CZ-3C R/B -0.1 20:51:22 10° WNW 20:53:20 82° SSW 20:54:10 31° ESE
Cosmos 968 Rocket 3.6 20:49:15 10° NNW 20:54:19 77° WSW 20:59:26 10° S
Abrixas rocket 2.1 20:50:59 10° SSW 20:54:21 71° SE 20:57:06 14° NE
Cosmos 1500 3.6 20:50:55 10° SSE 20:54:24 36° E 20:57:52 10° NNE
SAR-Lupe-4 4.1 20:52:54 10° S 20:56:26 59° WSW 20:59:55 10° NNW
Meteor 1-23 Rocket 4.2 20:52:03 10° N 20:57:45 69° E 21:03:32 10° SSE
PSLV R/B 3.4 20:55:28 10° SSW 20:58:44 49° SE 21:00:05 29° ENE
Resurs 01 Rocket 2.2 20:56:23 13° SE 20:59:55 35° ENE 21:03:56 10° NNE
FREGAT/IRIS 2.5 21:00:41 10° SSE 21:03:49 69° E 21:06:55 10° N
Cosmos 2297 Rocket 3.9 21:01:24 10° NE 21:03:07 14° ENE 21:03:07 14° ENE
Cosmos 1975 3.1 21:02:51 10° S 21:06:56 70° W 21:11:00 10° N
Cosmos 2173 Rocket 4.4 21:04:05 10° SSE 21:09:56 38° E 21:15:43 10° NNE
Spot 1 4.4 21:05:41 10° SSE 21:10:38 74° ENE 21:15:45 10° N
SJ-6B 3.4 21:11:47 10° S 21:15:28 53° WSW 21:19:06 10° NNW
Palapa 6 Rocket 4.5 21:09:30 10° NW 21:15:30 38° NNE 21:17:34 28° ENE
Cosmos 1375 Rocket 4.4 21:09:38 10° SSW 21:16:06 82° ESE 21:22:40 10° NNE
ARIANE 5 R/B 3.1 21:13:06 10° WNW 21:17:40 27° NNW 21:18:11 25° N
Cosmos 841 Rocket 3.4 21:13:38 10° S 21:18:55 84° ESE 21:24:09 10° NNE
HETE-2 4.5 21:16:44 10° W 21:20:58 81° S 21:21:42 59° ESE
Hubble Space Telescope 3.0 21:20:03 10° N 21:21:41 13° NNE 21:21:41 13° NNE
Meteor 2-15 4.3 21:17:13 10° N 21:23:16 89° E 21:29:22 10° S
Delta 198 3.9 21:20:26 10° SW 21:23:10 34° S 21:23:10 34° S
NOSS 3-4 (A) 4.2 21:16:50 10° N 21:23:53 45° ENE 21:26:28 34° ESE
NOSS 3-4 (C) 4.2 21:17:00 10° N 21:24:01 44° ENE 21:26:30 34° ESE
HJ-1C 3.2 21:24:19 83° SW 21:24:23 84° W 21:27:39 10° NNW
SL-16 R/B 2.1 21:24:11 10° S 21:29:45 59° ESE 21:35:18 10° NNE
Cosmos 2100 Rocket 3.9 21:23:28 10° S 21:29:47 69° E 21:36:01 10° N
Meteor 2-15 Rocket 4.3 21:25:01 10° N 21:31:05 87° E 21:37:12 10° S
Yuri Rocket 3.8 21:33:04 10° SW 21:38:26 68° SSE 21:39:45 54° E
Cosmos 1980 Rocket 4.2 21:34:24 10° SW 21:39:06 27° WNW 21:43:48 10° NNW
Ariane H10-3 3.4 21:04:40 10° W 21:45:55 75° S 21:47:34 54° ESE
Cosmos 2061 Rocket 3.9 21:42:11 10° S 21:48:36 87° W 21:54:54 10° N
Cosmos 1459 Rocket 3.9 21:45:01 10° S 21:51:05 79° W 21:57:06 10° N
Spot 2 Rocket 4.5 21:48:03 10° S 21:52:56 46° WSW 21:57:47 10° NNW
ALOS 4.1 22:00:17 22° N 22:00:17 22° N 22:01:53 10° N
ARIANE 5 DEB (SYLDA) 3.8 21:48:44 10° W 21:57:46 60° NNW 21:57:46 60° NNW
CZ-3B DEB 3.9 21:41:49 10° NNW 22:09:05 84° ENE 22:12:33 53° SE
Cosmos 2322 Rocket 3.4 22:09:15 10° SW 22:14:27 39° WNW 22:19:38 10° N
Ariane H10 4.4 21:37:47 10° W 22:30:05 64° N 22:31:41 59° NNE
Cosmos 2227 Rocket 3.8 22:28:44 10° NW 22:32:44 31° W 22:32:44 31° W
ARIANE 5 DEB (SYLDA) 3.9 22:26:47 10° W 22:33:18 49° W 22:33:18 49° W
Cosmos 2297 Rocket 4.4 22:43:10 10° NW 22:45:00 20° NW 22:45:00 20° NW
